{"data":{"norad_id":66566,"intl_designator":"2025-268K","name":"STARLINK-35871","alt_names":[],"object_type":"PAYLOAD","status":"ACTIVE","operator":null,"country":"US","launch_date":"2025-11-21","launch_site_code":"AFETR","launch_vehicle":null,"mission":null,"orbit_class":"UNKNOWN","rcs_meters":null,"size_class":null,"mass_kg":null,"dimensions":null,"purposes":["comms"],"wikipedia_slug":null,"has_3d_model":false,"image_url":null,"decayed_at":null,"tle_current":{"epoch":"2026-09-20T11:35:54.026016Z","epoch_age_seconds":90652,"freshness":"FRESH","line1":"1 66566U 25268K   26263.48326419  .00013800  00000+0  50991-3 0  9996","line2":"2 66566  43.0032 326.7337 0001397 266.9920  93.0771 15.27590114 47753","mean_motion":15.27590114,"eccentricity":0.0001397,"inclination_deg":43.0032,"raan_deg":326.7337,"arg_perigee_deg":266.992,"mean_anomaly_deg":93.0771,"bstar":0.00050991,"rev_number":4775,"period_min":94.266124584255,"perigee_km":482.06030778542,"apogee_km":483.97731471909,"semimajor_km":6861.1558112523,"source":"CELESTRAK","updated_at":"2026-09-21T09:00:35.971387Z"}}}